Regional Weather Roundup
Issued by NWS Kansas City/Pleasant Hill, MO

Home | Current Version | Previous Version | Text Only | Print | Product List | Glossary On
Versions: 1 2 3 4 5 6 7 8 9 10 11 12 13 14 15 16 17 18 19 20 21 22 23 24 25 26 27 28 29 30 31 32 33 34 35 36 37 38 39 40 41 42 43 44 45 46 47 48 49 50
000
ASUS43 KEAX 131410
RWREAX

WEATHER ROUNDUP FOR EASTERN KANSAS AND NORTHWEST MISSOURI
NATIONAL WEATHER SERVICE KANSAS CITY/PLEASANT HILL MO
800 AM CST SAT FEB 13 2016

KSZ040-057-103>105-MOZ028-029-037-043-131500-
...KANSAS CITY METROPOLITAN AREA...

CITY           SKY/WX    TMP DP  RH WIND       PRES   REMARKS
K.C. INTL      CLOUDY    16   3  56 E9        30.59F WCI   4
K.C. DOWNTOWN  CLOUDY    18   4  54 E8        30.61F WCI   8
LEES SUMMIT    CLOUDY    16   3  56 E10       30.60S WCI   4
OLATHE - IXD   CLOUDY    17   0  47 E8        30.58F WCI   7
OLATHE - OJC   CLOUDY    16   0  49 E8        30.58F WCI   5
LAWRENCE       CLOUDY    18   3  52 E9        30.60F WCI   7

$$

MOZ001>008-011>017-020>025-030>033-038>040-044>046-053-054-131500-
...NORTHERN AND CENTRAL MISSOURI...

CITY           SKY/WX    TMP DP  RH WIND       PRES   REMARKS
ST. JOSEPH     CLOUDY    14   2  58 E8        30.62F WCI   3
MOSBY            N/A     16   3  57 E6        30.63F WCI   7
WARRENSBURG    CLOUDY    16   3  57 NE6       30.65R WCI   7
WHITEMAN AFB   CLOUDY    15   2  55 NE9       30.62R WCI   3
CLINTON          N/A     19   5  53 NE8       30.63R WCI   9
SEDALIA        CLOUDY    16   3  56 NE8       30.63F WCI   5
WARSAW         NOT AVBL
CHILLICOTHE      N/A     12   1  61 E5        30.67S WCI   4
KIRKSVILLE     PTCLDY     8  -3  61 N3        30.66R

$$

MOZ041-047>049-056>058-063>065-088>090-097-131500-
...EASTERN AND SOUTHERN MISSOURI...

CITY           SKY/WX    TMP DP  RH WIND       PRES   REMARKS
ST. LOUIS INTL PTSUNNY   13   0  56 N9        30.67R WCI   1
SPIRIT OF STL  CLOUDY    12   0  58 N6        30.68R WCI   3
COLUMBIA       CLOUDY    12   2  64 NE6       30.63S WCI   3
JEFFERSON CITY CLOUDY    14   1  56 NE7       30.67R WCI   4
ROLLA          CLOUDY    14   3  61 NE7       30.58R WCI   4
OSAGE BEACH    CLOUDY    18   3  53 NE8       30.61S WCI   7
SPRINGFIELD    CLOUDY    22   0  38 NE12      30.54R WCI  10
BRANSON        CLOUDY    25   1  36 SE5       30.53S WCI  19
JOPLIN         CLOUDY    23   8  52 NE9       30.56R WCI  13
WEST PLAINS    CLOUDY    20  -3  36 NE13      30.55R WCI   7

$$

IAZ060-094-KSZ022-034>040-054-083-096-NEZ052-066-093-131500-
...KANSAS...SOUTHEAST NEBRASKA AND IOWA...

CITY           SKY/WX    TMP DP  RH WIND       PRES   REMARKS
TOPEKA         CLOUDY    20   2  45 E10       30.59F WCI   9
MANHATTAN      CLOUDY    19   4  51 E12       30.54F WCI   7
EMPORIA        PTCLDY    20   8  60 E10       30.53S WCI   9
CHANUTE        CLOUDY    22   5  48 E12G18    30.55S WCI  10
WICHITA        CLOUDY    23   7  50 E13       30.49R WCI  11
OMAHA          CLOUDY    10   1  67 E9        30.61F WCI  -3
LINCOLN        CLOUDY    16   6  65 SE9       30.56S WCI   4
FALLS CITY     CLOUDY    15   4  61 E8        30.59S WCI   4
LAMONI         CLOUDY     7  -2  66 E3        30.61F
DES MOINES     CLOUDY     4  -4  69 W3        30.66R

$$




USA.gov is the U.S. government's official web portal to all federal, state and local government web resources and services.